Time,TemperatureF,DewpointF,PressureIn,WindDirection,WindDirectionDegrees,WindSpeedMPH,WindSpeedGustMPH,Humidity,HourlyPrecipIn,Conditions,Clouds,dailyrainin,SoftwareType,DateUTC
2013-04-15 00:14:00,60.5,51.0,29.80,SSE,147,3.0,11.0,72,0.00,,,0.00,weatherlink.com 1.10,2013-04-15 05:14:00,
2013-04-15 00:29:00,60.3,52.0,29.80,SE,140,4.0,9.0,73,0.00,,,0.00,weatherlink.com 1.10,2013-04-15 05:29:00,
2013-04-15 00:44:00,60.2,52.0,29.81,SE,142,8.0,9.0,73,0.00,,,0.00,weatherlink.com 1.10,2013-04-15 05:44:00,
2013-04-15 00:59:00,60.1,52.0,29.81,SSE,147,4.0,9.0,74,0.00,,,0.00,weatherlink.com 1.10,2013-04-15 05:59:00,
2013-04-15 01:14:00,60.0,52.0,29.81,SSE,148,6.0,9.0,74,0.00,,,0.00,weatherlink.com 1.10,2013-04-15 06:14:00,
2013-04-15 01:29:00,59.9,52.0,29.81,SE,132,3.0,9.0,75,0.00,,,0.00,weatherlink.com 1.10,2013-04-15 06:29:00,
2013-04-15 01:44:00,59.5,52.0,29.80,SE,140,5.0,12.0,75,0.00,,,0.00,weatherlink.com 1.10,2013-04-15 06:44:00,
2013-04-15 01:59:00,59.1,52.0,29.80,SSE,148,3.0,9.0,76,0.00,,,0.00,weatherlink.com 1.10,2013-04-15 06:59:00,
2013-04-15 02:44:00,58.1,51.0,29.79,SE,133,4.0,7.0,78,0.00,,,0.00,weatherlink.com 1.10,2013-04-15 07:44:00,
2013-04-15 02:59:00,57.8,51.0,29.79,SE,133,2.0,6.0,79,0.00,,,0.00,weatherlink.com 1.10,2013-04-15 07:59:00,
2013-04-15 03:14:00,57.5,51.0,29.79,SE,133,3.0,5.0,80,0.00,,,0.00,weatherlink.com 1.10,2013-04-15 08:14:00,
2013-04-15 03:29:00,57.0,51.0,29.80,SE,133,1.0,4.0,81,0.00,,,0.00,weatherlink.com 1.10,2013-04-15 08:29:00,
2013-04-15 03:44:00,56.6,51.0,29.81,SE,133,1.0,4.0,82,0.00,,,0.00,weatherlink.com 1.10,2013-04-15 08:44:00,
2013-04-15 03:59:00,56.2,51.0,29.81,SE,133,2.0,3.0,82,0.00,,,0.00,weatherlink.com 1.10,2013-04-15 08:59:00,
2013-04-15 04:14:00,56.2,51.0,29.82,SE,133,0.0,3.0,83,0.00,,,0.00,weatherlink.com 1.10,2013-04-15 09:14:00,
2013-04-15 04:29:00,56.4,52.0,29.82,SE,133,0.0,3.0,84,0.00,,,0.00,weatherlink.com 1.10,2013-04-15 09:29:00,
2013-04-15 04:44:00,56.6,52.0,29.83,SE,133,1.0,1.0,84,0.00,,,0.00,weatherlink.com 1.10,2013-04-15 09:44:00,
2013-04-15 04:59:00,56.7,52.0,29.83,SE,133,0.0,2.0,85,0.00,,,0.00,weatherlink.com 1.10,2013-04-15 09:59:00,
2013-04-15 05:14:00,56.7,52.0,29.83,SE,133,0.0,3.0,85,0.00,,,0.00,weatherlink.com 1.10,2013-04-15 10:14:00,
2013-04-15 05:29:00,57.3,53.0,29.84,SE,133,0.0,3.0,84,0.00,,,0.00,weatherlink.com 1.10,2013-04-15 10:29:00,
2013-04-15 05:44:00,56.8,53.0,29.84,SE,133,1.0,2.0,86,0.00,,,0.00,weatherlink.com 1.10,2013-04-15 10:44:00,
2013-04-15 05:59:00,56.4,53.0,29.85,SE,133,0.0,1.0,87,0.00,,,0.00,weatherlink.com 1.10,2013-04-15 10:59:00,
2013-04-15 06:14:00,56.6,53.0,29.85,SE,133,1.0,1.0,87,0.00,,,0.00,weatherlink.com 1.10,2013-04-15 11:14:00,
2013-04-15 06:29:00,56.8,53.0,29.85,SE,133,1.0,2.0,87,0.00,,,0.00,weatherlink.com 1.10,2013-04-15 11:29:00,
2013-04-15 06:44:00,57.1,53.0,29.86,SE,133,0.0,2.0,87,0.00,,,0.00,weatherlink.com 1.10,2013-04-15 11:44:00,
2013-04-15 06:59:00,57.6,54.0,29.85,SE,133,2.0,3.0,86,0.00,,,0.00,weatherlink.com 1.10,2013-04-15 11:59:00,
2013-04-15 07:14:00,58.5,54.0,29.85,SE,133,2.0,4.0,85,0.00,,,0.00,weatherlink.com 1.10,2013-04-15 12:14:00,
2013-04-15 07:29:00,59.5,55.0,29.87,SSE,154,4.0,6.0,84,0.00,,,0.00,weatherlink.com 1.10,2013-04-15 12:29:00,
2013-04-15 07:44:00,60.4,55.0,29.87,South,176,5.0,8.0,83,0.00,,,0.00,weatherlink.com 1.10,2013-04-15 12:44:00,
2013-04-15 07:59:00,60.4,55.0,29.86,SSE,148,6.0,10.0,82,0.00,,,0.00,weatherlink.com 1.10,2013-04-15 12:59:00,
2013-04-15 08:14:00,60.7,55.0,29.86,SSE,149,6.0,9.0,82,0.00,,,0.00,weatherlink.com 1.10,2013-04-15 13:14:00,
2013-04-15 08:29:00,61.5,56.0,29.86,SSE,156,5.0,8.0,81,0.00,,,0.00,weatherlink.com 1.10,2013-04-15 13:29:00,
2013-04-15 08:44:00,61.8,56.0,29.87,SSE,167,6.0,8.0,81,0.00,,,0.00,weatherlink.com 1.10,2013-04-15 13:44:00,
2013-04-15 08:59:00,62.0,56.0,29.88,South,178,6.0,9.0,81,0.00,,,0.00,weatherlink.com 1.10,2013-04-15 13:59:00,
2013-04-15 09:14:00,62.1,56.0,29.88,South,181,2.0,11.0,80,0.00,,,0.00,weatherlink.com 1.10,2013-04-15 14:14:00,
2013-04-15 09:29:00,62.3,56.0,29.89,SSW,192,3.0,7.0,80,0.00,,,0.00,weatherlink.com 1.10,2013-04-15 14:29:00,
2013-04-15 09:45:00,62.5,56.0,29.90,SW,227,4.0,8.0,80,0.00,,,0.00,weatherlink.com 1.10,2013-04-15 14:45:00,
2013-04-15 10:00:00,62.7,57.0,29.91,SSE,164,6.0,8.0,81,0.00,,,0.00,weatherlink.com 1.10,2013-04-15 15:00:00,
2013-04-15 10:15:00,63.0,57.0,29.91,South,173,5.0,9.0,80,0.00,,,0.00,weatherlink.com 1.10,2013-04-15 15:15:00,
2013-04-15 10:30:00,63.2,57.0,29.91,SSW,194,9.0,11.0,80,0.00,,,0.00,weatherlink.com 1.10,2013-04-15 15:30:00,
2013-04-15 10:45:00,63.7,57.0,29.91,SSE,167,8.0,10.0,80,0.00,,,0.00,weatherlink.com 1.10,2013-04-15 15:45:00,
2013-04-15 11:00:00,64.4,58.0,29.91,South,184,7.0,9.0,79,0.00,,,0.00,weatherlink.com 1.10,2013-04-15 16:00:00,
2013-04-15 11:15:00,64.8,58.0,29.91,SE,142,8.0,12.0,79,0.00,,,0.00,weatherlink.com 1.10,2013-04-15 16:15:00,
2013-04-15 11:30:00,66.0,59.0,29.91,SSE,153,9.0,11.0,79,0.00,,,0.00,weatherlink.com 1.10,2013-04-15 16:30:00,
2013-04-15 11:45:00,66.1,59.0,29.90,SE,142,8.0,12.0,77,0.00,,,0.00,weatherlink.com 1.10,2013-04-15 16:45:00,
2013-04-15 12:00:00,67.1,60.0,29.89,SSE,165,11.0,12.0,77,0.00,,,0.00,weatherlink.com 1.10,2013-04-15 17:00:00,
2013-04-15 12:15:00,67.5,60.0,29.88,SSE,157,7.0,11.0,78,0.00,,,0.00,weatherlink.com 1.10,2013-04-15 17:15:00,
2013-04-15 12:30:00,68.7,61.0,29.88,SE,144,7.0,12.0,75,0.00,,,0.00,weatherlink.com 1.10,2013-04-15 17:30:00,
2013-04-15 12:45:00,69.9,62.0,29.86,South,173,10.0,16.0,75,0.00,,,0.00,weatherlink.com 1.10,2013-04-15 17:45:00,
2013-04-15 13:00:00,71.2,61.0,29.86,SSE,153,10.0,17.0,70,0.00,,,0.00,weatherlink.com 1.10,2013-04-15 18:00:00,
2013-04-15 13:30:00,73.3,64.0,29.84,South,174,11.0,17.0,72,0.00,,,0.00,weatherlink.com 1.10,2013-04-15 18:30:00,
2013-04-15 13:45:00,74.1,64.0,29.84,South,180,15.0,19.0,70,0.00,,,0.00,weatherlink.com 1.10,2013-04-15 18:45:00,
2013-04-15 14:00:00,73.4,62.0,29.85,South,171,12.0,19.0,68,0.00,,,0.00,weatherlink.com 1.10,2013-04-15 19:00:00,
2013-04-15 14:15:00,73.4,63.0,29.85,SE,144,18.0,18.0,69,0.00,,,0.00,weatherlink.com 1.10,2013-04-15 19:15:00,
2013-04-15 14:30:00,74.5,63.0,29.84,South,177,15.0,18.0,68,0.00,,,0.00,weatherlink.com 1.10,2013-04-15 19:30:00,
2013-04-15 14:45:00,74.7,63.0,29.84,South,178,15.0,20.0,66,0.00,,,0.00,weatherlink.com 1.10,2013-04-15 19:45:00,
2013-04-15 15:00:00,75.5,62.0,29.83,South,182,12.0,19.0,64,0.00,,,0.00,weatherlink.com 1.10,2013-04-15 20:00:00,
2013-04-15 15:15:00,75.1,63.0,29.83,SSE,162,8.0,17.0,66,0.00,,,0.00,weatherlink.com 1.10,2013-04-15 20:15:00,
2013-04-15 15:30:00,75.6,64.0,29.83,South,181,8.0,14.0,67,0.00,,,0.00,weatherlink.com 1.10,2013-04-15 20:30:00,
2013-04-15 15:45:00,75.7,62.0,29.82,South,190,8.0,14.0,63,0.00,,,0.00,weatherlink.com 1.10,2013-04-15 20:45:00,
2013-04-15 16:00:00,76.2,63.0,29.82,SSE,155,9.0,14.0,64,0.00,,,0.00,weatherlink.com 1.10,2013-04-15 21:00:00,
2013-04-15 16:15:00,76.2,62.0,29.82,South,177,9.0,22.0,62,0.00,,,0.00,weatherlink.com 1.10,2013-04-15 21:15:00,
2013-04-15 16:30:00,76.2,62.0,29.82,South,181,11.0,17.0,61,0.00,,,0.00,weatherlink.com 1.10,2013-04-15 21:30:00,
2013-04-15 16:45:00,75.4,62.0,29.82,SSE,159,7.0,13.0,63,0.00,,,0.00,weatherlink.com 1.10,2013-04-15 21:45:00,
2013-04-15 17:00:00,75.8,62.0,29.82,South,170,7.0,12.0,63,0.00,,,0.00,weatherlink.com 1.10,2013-04-15 22:00:00,
2013-04-15 17:15:00,76.5,62.0,29.80,SE,130,10.0,15.0,62,0.00,,,0.00,weatherlink.com 1.10,2013-04-15 22:15:00,
2013-04-15 17:30:00,77.5,63.0,29.79,South,169,8.0,14.0,61,0.00,,,0.00,weatherlink.com 1.10,2013-04-15 22:30:00,
2013-04-15 17:45:00,77.3,63.0,29.79,SSE,160,10.0,15.0,61,0.00,,,0.00,weatherlink.com 1.10,2013-04-15 22:45:00,
2013-04-15 18:00:00,77.0,62.0,29.78,SSE,163,12.0,15.0,61,0.00,,,0.00,weatherlink.com 1.10,2013-04-15 23:00:00,
2013-04-15 18:15:00,76.8,63.0,29.78,South,169,11.0,17.0,62,0.00,,,0.00,weatherlink.com 1.10,2013-04-15 23:15:00,
2013-04-15 18:30:00,76.4,63.0,29.78,South,176,12.0,13.0,63,0.00,,,0.00,weatherlink.com 1.10,2013-04-15 23:30:00,
2013-04-15 18:45:00,76.0,63.0,29.78,SSE,163,7.0,14.0,64,0.00,,,0.00,weatherlink.com 1.10,2013-04-15 23:45:00,
2013-04-15 19:00:00,75.3,63.0,29.78,SSE,162,4.0,9.0,65,0.00,,,0.00,weatherlink.com 1.10,2013-04-16 00:00:00,
2013-04-15 19:15:00,74.0,63.0,29.79,SSE,162,2.0,5.0,68,0.00,,,0.00,weatherlink.com 1.10,2013-04-16 00:15:00,
2013-04-15 19:30:00,73.2,62.0,29.79,SSE,162,2.0,4.0,69,0.00,,,0.00,weatherlink.com 1.10,2013-04-16 00:30:00,
2013-04-15 19:45:00,72.3,62.0,29.79,SSE,162,0.0,2.0,70,0.00,,,0.00,weatherlink.com 1.10,2013-04-16 00:45:00,
2013-04-15 20:00:00,71.5,62.0,29.80,SSE,162,0.0,0.0,71,0.00,,,0.00,weatherlink.com 1.10,2013-04-16 01:00:00,
2013-04-15 20:16:00,70.7,62.0,29.80,SSE,162,0.0,0.0,73,0.00,,,0.00,weatherlink.com 1.10,2013-04-16 01:16:00,
2013-04-15 20:31:00,69.7,61.0,29.81,SSE,162,0.0,0.0,74,0.00,,,0.00,weatherlink.com 1.10,2013-04-16 01:31:00,
2013-04-15 20:46:00,68.6,61.0,29.82,SSE,162,0.0,0.0,76,0.00,,,0.00,weatherlink.com 1.10,2013-04-16 01:46:00,
2013-04-15 21:01:00,66.8,60.0,29.82,SSE,162,0.0,1.0,78,0.00,,,0.00,weatherlink.com 1.10,2013-04-16 02:01:00,
2013-04-15 21:16:00,65.8,60.0,29.83,SSE,162,0.0,0.0,81,0.00,,,0.00,weatherlink.com 1.10,2013-04-16 02:16:00,
2013-04-15 21:31:00,65.8,60.0,29.84,SSE,162,0.0,0.0,82,0.00,,,0.00,weatherlink.com 1.10,2013-04-16 02:31:00,
2013-04-15 21:46:00,66.7,60.0,29.84,SSE,162,0.0,2.0,79,0.00,,,0.00,weatherlink.com 1.10,2013-04-16 02:46:00,
2013-04-15 22:01:00,67.2,61.0,29.85,SSE,162,0.0,1.0,79,0.00,,,0.00,weatherlink.com 1.10,2013-04-16 03:01:00,
2013-04-15 22:16:00,67.9,60.0,29.85,SSE,162,1.0,3.0,76,0.00,,,0.00,weatherlink.com 1.10,2013-04-16 03:16:00,
2013-04-15 22:31:00,66.7,60.0,29.85,SSE,162,0.0,1.0,79,0.00,,,0.00,weatherlink.com 1.10,2013-04-16 03:31:00,
2013-04-15 22:46:00,67.2,60.0,29.84,SSE,162,3.0,3.0,78,0.00,,,0.00,weatherlink.com 1.10,2013-04-16 03:46:00,
2013-04-15 23:01:00,67.1,60.0,29.84,SSE,162,3.0,5.0,77,0.00,,,0.00,weatherlink.com 1.10,2013-04-16 04:01:00,
2013-04-15 23:16:00,66.2,60.0,29.84,SSE,162,2.0,4.0,80,0.00,,,0.00,weatherlink.com 1.10,2013-04-16 04:16:00,
2013-04-15 23:31:00,67.0,60.0,29.84,SSE,163,4.0,8.0,78,0.00,,,0.00,weatherlink.com 1.10,2013-04-16 04:31:00,
2013-04-15 23:46:00,67.0,60.0,29.84,South,170,3.0,7.0,78,0.00,,,0.00,weatherlink.com 1.10,2013-04-16 04:46:00,